Wind_Speed
20 18 18 17 18 18 16 14 12 11 10 12 10 10 11 12 14 13 12 11 11 12 10 9 9 10 11 12 12 12 12 13 13 11 12 10 11 11 11 12 13 13 11
23 25 25 24 23 22 21 19 17 16 15 15 12 11 10 10 12 13 14 12 12 12 11 11 10 9 11 12 11 12 11 12 13 12 11 11 13 12 13 13 12 12 13
18 30 30 28 26 24 24 23 23 22 20 17 16 15 15 13 14 13 12 12 12 12 11 10 10 10 10 10 11 12 12 12 14 15 15 14 15 14 15 13 13 11 14
13 21 38 33 29 30 27 28 27 25 23 21 20 18 16 16 18 16 15 14 15 14 13 12 13 13 13 13 14 14 14 15 15 16 17 17 16 16 15 14 13 13 15
18 21 26 29 35 35 32 31 31 27 25 24 23 22 20 19 18 15 15 16 16 15 16 16 16 16 16 16 17 17 17 18 18 19 19 19 18 17 15 15 16 17 19
21 17 19 34 33 39 34 32 33 33 31 29 27 26 25 24 20 19 18 18 17 17 16 17 17 18 18 18 18 18 18 18 20 20 20 20 18 17 16 16 17 21 24
27 19 17 18 31 34 34 33 37 34 31 30 29 29 28 27 26 25 24 22 20 19 19 20 20 20 20 20 20 21 20 20 20 20 21 20 20 19 21 22 22 24 26
28 25 18 17 33 33 36 39 37 35 34 33 32 32 32 32 32 31 29 27 25 23 23 23 22 22 22 21 21 22 23 23 23 23 24 25 23 25 23 24 26 26 26
29 29 24 23 24 28 33 31 30 29 28 32 32 34 36 35 34 33 32 30 29 29 29 28 27 26 26 25 22 22 21 23 25 24 24 25 25 26 25 24 25 24 25
32 32 31 29 30 28 26 29 25 22 24 30 27 34 39 42 39 36 35 33 32 33 33 32 33 33 31 32 29 28 26 30 29 27 25 24 26 27 29 27 27 26 24
35 33 35 35 33 32 31 30 30 31 31 34 34 35 35 36 37 36 37 36 37 37 36 36 36 36 36 38 38 36 35 35 35 34 33 31 31 31 33 34 33 31 28
42 38 38 39 38 37 35 34 34 34 36 38 37 40 36 39 41 41 39 40 42 40 40 40 39 38 39 40 40 40 39 38 39 40 38 35 36 35 38 40 40 38 36
46 45 42 41 43 43 43 42 40 39 38 39 38 38 39 38 41 39 41 44 40 45 38 38 40 41 42 43 43 42 44 42 41 40 41 41 41 40 40 41 43 43 42
46 45 43 41 42 44 46 46 46 46 44 42 42 42 41 40 42 42 42 44 45 43 45 47 46 46 45 45 45 46 48 46 45 44 44 45 44 44 43 44 45 46 45
48 48 47 46 44 43 45 46 46 48 48 47 47 46 46 46 47 46 47 49 48 47 46 45 45 45 46 45 47 48 48 47 49 47 47 48 48 48 46 45 45 46 45
49 49 49 49 48 48 47 47 49 50 52 52 51 50 51 50 51 51 52 51 50 49 48 48 46 45 45 45 45 46 46 46 46 47 48 45 43 44 43 43 45 46 45
51 51 51 51 50 51 51 50 50 52 53 55 56 54 53 54 56 56 56 55 54 52 50 51 50 48 48 48 47 46 47 48 45 43 45 51 49 46 43 44 45 47 47
51 51 52 52 52 52 51 51 52 52 52 54 57 59 61 60 58 58 59 59 59 58 57 56 54 54 53 51 49 49 49 48 48 47 44 46 46 46 45 44 46 47 50
53 53 53 53 53 54 53 54 54 54 53 54 56 57 61 63 63 63 63 63 64 64 64 62 61 60 58 57 54 53 52 51 51 51 51 52 52 51 50 49 48 47 46
52 55 56 57 58 58 59 59 59 59 59 58 58 58 61 62 63 65 67 68 68 68 69 69 69 68 67 64 62 59 58 58 57 55 53 52 53 53 51 51 50 49 48
49 49 49 51 54 57 59 62 64 65 65 64 63 61 61 62 63 63 66 69 71 73 73 73 73 73 72 72 70 69 66 65 64 64 62 59 58 56 55 55 53 51 49
58 59 60 60 61 62 63 64 65 67 67 66 64 63 63 63 63 64 69 70 70 70 72 74 75 76 76 75 75 77 75 71 70 70 69 67 65 63 62 60 59 55 51
58 61 62 63 64 65 66 68 70 71 72 72 72 70 69 68 69 70 73 75 74 75 75 74 74 75 76 76 76 76 79 78 76 73 72 72 71 70 69 67 65 63 59
54 55 58 62 65 69 73 74 75 77 80 81 81 81 82 81 81 82 82 79 78 77 77 77 77 78 79 78 77 78 77 79 79 78 76 74 73 74 72 71 70 69 66
52 56 59 62 65 68 72 76 78 79 82 87 88 91 92 94 95 94 92 92 89 87 88 86 85 84 84 82 80 80 77 81 80 79 77 75 74 74 75 73 70 70 69
50 54 59 62 66 71 75 78 80 79 79 82 84 89 93 96 97 101 100 100 99 97 96 95 95 94 90 88 86 83 82 82 82 81 79 77 74 73 74 74 72 69 68
Wind_Direction
211 209 221 214 210 198 190 192 187 178 182 192 173 175 184 184 181 191 188 183 189 193 193 185 185 182 192 197 198 206 218 229 240 247 260 276 291 303 303 310 322 324 332
219 219 212 218 214 207 199 200 198 190 197 191 191 187 191 194 197 191 194 195 204 203 198 199 204 202 200 205 211 219 228 240 252 260 268 284 291 292 291 305 308 319 324
219 222 218 216 220 216 203 207 207 201 201 199 192 190 191 194 206 198 204 206 207 215 219 220 222 218 222 224 229 238 243 249 260 269 277 281 281 284 288 296 304 311 316
267 248 231 216 217 220 211 202 214 215 207 208 207 208 204 206 210 203 203 211 217 217 221 226 234 238 233 236 241 244 249 254 258 265 272 278 281 281 283 288 292 305 312
293 303 245 218 220 219 219 209 208 214 218 218 216 216 217 218 228 223 218 220 224 223 226 228 230 238 241 241 246 252 254 259 263 267 271 277 282 282 278 277 282 293 300
287 289 290 210 229 222 215 217 215 214 214 219 222 224 222 227 227 228 228 229 233 234 234 237 239 243 246 247 249 253 256 258 262 266 270 274 283 279 279 278 282 289 295
271 266 280 262 223 214 214 218 224 220 219 221 224 228 230 231 232 234 233 230 227 233 238 240 241 243 248 251 257 261 260 260 265 267 270 272 277 281 282 285 287 288 292
268 273 261 252 237 233 231 231 238 224 219 222 226 230 231 234 236 237 237 236 237 240 241 242 244 248 249 251 254 259 264 267 267 268 269 274 276 279 280 282 283 286 286
256 260 260 258 263 274 243 221 221 207 214 223 222 227 233 236 238 240 243 244 245 244 246 250 252 254 256 258 259 263 264 268 268 269 275 281 283 282 281 279 277 278 281
264 264 266 258 256 258 263 259 259 243 250 226 228 239 238 239 235 240 243 243 244 245 250 252 252 256 261 264 261 261 265 266 269 270 269 269 273 277 280 278 276 277 279
264 263 265 267 263 261 262 259 252 263 264 256 250 259 251 249 237 234 240 243 245 246 246 249 252 253 253 256 259 260 260 261 265 266 269 273 274 275 275 277 279 281 280
265 264 262 264 266 267 263 260 257 252 247 249 251 256 256 250 247 243 238 241 244 246 249 252 255 256 257 258 259 260 260 261 264 267 267 266 269 272 275 278 280 279 280
266 265 262 259 259 259 260 260 257 255 252 252 252 256 256 252 249 244 248 252 251 255 253 255 258 259 259 260 260 261 263 264 263 264 267 269 269 268 270 272 275 279 280
260 262 262 258 255 257 260 260 260 259 257 256 256 255 254 251 248 255 266 258 252 253 249 252 256 262 262 262 262 262 262 263 264 265 265 264 263 265 267 270 273 274 277
258 259 260 260 259 255 255 257 258 260 261 260 258 256 256 255 253 252 248 252 255 254 254 254 254 257 259 261 263 264 266 266 265 264 265 267 268 268 268 269 270 270 275
257 258 258 259 259 259 257 254 254 255 257 259 258 256 256 255 256 256 255 254 253 253 255 256 255 256 257 259 261 263 266 267 264 266 267 265 268 266 267 271 274 275 276
257 257 257 258 257 257 257 256 255 253 254 255 257 258 257 257 257 258 259 258 258 257 256 256 256 257 256 257 258 260 260 260 260 263 267 264 263 262 262 268 272 274 277
257 259 260 260 260 259 259 257 256 256 257 255 254 256 259 259 259 258 259 260 260 260 260 259 259 260 260 260 260 259 261 263 264 262 260 260 261 264 265 269 273 276 279
260 260 261 261 262 262 262 261 260 259 255 255 257 257 256 258 260 261 260 260 260 261 260 260 261 260 258 258 259 260 261 262 263 264 266 264 264 266 268 268 269 273 279
260 260 260 261 262 262 262 262 263 262 261 259 258 258 259 258 256 256 259 260 260 261 261 262 262 262 262 261 259 258 258 259 260 261 263 265 267 268 268 269 268 269 270
262 261 260 261 261 261 261 261 261 261 262 262 261 259 258 258 259 259 258 258 259 260 260 261 262 262 263 264 265 264 262 260 260 261 262 263 265 266 268 269 268 268 271
264 265 264 264 264 264 265 266 266 265 262 260 258 258 258 258 258 258 257 257 258 259 260 260 259 260 260 260 262 265 264 262 262 263 262 262 263 265 266 268 269 269 271
267 268 268 268 269 269 268 267 266 267 267 265 262 259 259 260 262 262 261 261 259 260 261 260 259 258 258 258 258 258 262 263 263 262 262 263 263 263 264 265 267 268 269
268 270 272 272 273 273 273 273 272 271 270 268 266 265 264 263 265 265 265 263 262 261 260 260 260 260 259 258 257 257 256 259 260 260 260 260 262 263 263 262 263 265 267
273 274 277 279 281 281 278 275 274 274 275 274 273 271 268 266 266 267 267 266 266 264 263 261 261 261 260 259 258 258 256 257 257 257 258 258 257 258 261 262 261 262 264
283 284 284 285 287 287 283 280 278 277 275 273 273 270 268 267 267 266 265 264 263 262 261 261 261 261 262 261 261 259 256 257 257 257 256 255 254 253 255 259 260 259 260
Height
5931 5936 5937 5938 5941 5943 5946 5948 5948 5951 5954 5956 5957 5957 5958 5959 5959 5961 5963 5964 5966 5968 5968 5969 5970 5971 5973 5974 5974 5975 5976 5976 5976 5974 5973 5974 5973 5973 5972 5971 5970 5968 5967
5925 5930 5933 5936 5938 5941 5942 5944 5946 5948 5951 5952 5953 5955 5956 5957 5958 5960 5960 5961 5963 5966 5968 5968 5968 5969 5970 5972 5972 5973 5975 5975 5974 5973 5972 5973 5972 5971 5970 5969 5968 5968 5966
5914 5923 5928 5931 5936 5938 5942 5941 5943 5945 5947 5949 5949 5950 5952 5954 5956 5957 5958 5959 5960 5962 5963 5965 5966 5967 5968 5969 5970 5970 5971 5971 5970 5970 5969 5970 5970 5969 5968 5968 5966 5966 5965
5911 5914 5917 5924 5929 5932 5936 5940 5940 5942 5943 5946 5948 5949 5949 5951 5953 5952 5953 5955 5957 5959 5960 5961 5963 5964 5965 5966 5967 5967 5968 5968 5968 5967 5967 5966 5967 5967 5967 5966 5965 5964 5963
5907 5908 5909 5915 5922 5925 5926 5932 5936 5937 5939 5942 5944 5945 5948 5949 5952 5951 5950 5951 5954 5955 5956 5958 5959 5960 5961 5962 5962 5963 5966 5965 5965 5966 5965 5964 5964 5964 5965 5964 5963 5962 5960
5902 5906 5904 5906 5911 5915 5919 5922 5925 5929 5931 5935 5938 5941 5943 5945 5946 5949 5949 5950 5951 5952 5952 5954 5956 5957 5958 5959 5959 5959 5961 5962 5962 5962 5963 5962 5961 5960 5960 5961 5960 5959 5956
5900 5903 5902 5902 5906 5909 5912 5915 5917 5918 5922 5927 5931 5934 5936 5938 5940 5944 5946 5947 5948 5949 5949 5950 5951 5952 5953 5954 5956 5957 5958 5958 5958 5958 5958 5958 5958 5958 5957 5956 5956 5954 5952
5892 5894 5898 5901 5903 5903 5906 5909 5912 5912 5914 5919 5922 5926 5928 5930 5934 5936 5940 5942 5944 5945 5945 5946 5947 5947 5947 5948 5951 5952 5954 5954 5953 5954 5954 5953 5953 5953 5953 5952 5950 5949 5947
5886 5888 5891 5893 5894 5895 5897 5899 5903 5903 5907 5910 5913 5916 5919 5922 5925 5928 5933 5935 5937 5939 5940 5941 5941 5942 5942 5944 5947 5947 5948 5948 5947 5947 5949 5948 5948 5947 5947 5947 5944 5944 5942
5877 5879 5881 5885 5887 5890 5891 5892 5893 5895 5900 5902 5904 5908 5911 5912 5915 5919 5922 5925 5929 5930 5931 5933 5934 5935 5937 5938 5940 5941 5943 5939 5939 5941 5942 5942 5941 5940 5938 5938 5937 5938 5939
5866 5870 5872 5874 5877 5880 5882 5885 5887 5889 5894 5897 5898 5900 5903 5905 5905 5908 5911 5914 5917 5919 5921 5923 5925 5926 5927 5927 5929 5931 5932 5933 5933 5933 5933 5934 5934 5932 5931 5928 5929 5931 5932
5854 5859 5863 5864 5866 5869 5873 5876 5879 5882 5884 5887 5888 5891 5892 5896 5898 5899 5901 5904 5907 5909 5911 5913 5914 5916 5918 5918 5919 5920 5921 5923 5924 5924 5926 5926 5926 5925 5923 5922 5920 5920 5920
5842 5845 5850 5855 5858 5860 5863 5866 5869 5871 5874 5877 5878 5880 5881 5884 5886 5890 5892 5894 5896 5899 5900 5901 5903 5905 5907 5907 5908 5909 5908 5911 5913 5915 5915 5916 5915 5915 5916 5915 5913 5912 5912
5829 5831 5835 5841 5845 5848 5850 5853 5855 5858 5862 5865 5867 5868 5870 5871 5873 5875 5879 5883 5883 5886 5887 5889 5890 5892 5894 5895 5895 5896 5896 5898 5899 5901 5903 5904 5903 5904 5905 5904 5904 5903 5905
5816 5819 5821 5824 5829 5833 5837 5839 5841 5843 5846 5849 5852 5854 5857 5859 5858 5862 5865 5869 5871 5873 5874 5875 5876 5878 5880 5881 5882 5882 5883 5885 5886 5887 5888 5890 5891 5891 5893 5892 5893 5894 5895
5801 5804 5807 5811 5813 5816 5820 5824 5828 5829 5831 5833 5835 5838 5841 5843 5844 5847 5850 5853 5856 5859 5861 5862 5863 5864 5866 5867 5868 5868 5869 5871 5871 5873 5875 5877 5878 5878 5879 5879 5880 5881 5883
5785 5788 5791 5794 5797 5801 5804 5807 5810 5814 5817 5818 5820 5821 5824 5826 5829 5832 5834 5837 5840 5843 5844 5846 5849 5849 5851 5853 5854 5855 5857 5857 5858 5858 5859 5861 5863 5865 5866 5868 5869 5869 5870
5769 5771 5774 5776 5779 5781 5784 5787 5791 5794 5797 5801 5803 5806 5806 5808 5812 5815 5817 5819 5821 5824 5827 5830 5834 5835 5837 5839 5840 5841 5843 5844 5844 5845 5844 5846 5848 5850 5853 5854 5854 5855 5855
5753 5755 5758 5760 5761 5763 5765 5768 5771 5774 5778 5780 5781 5783 5785 5790 5792 5793 5797 5799 5802 5805 5807 5811 5814 5816 5819 5821 5824 5826 5828 5829 5830 5830 5831 5832 5833 5833 5837 5839 5841 5842 5841
5736 5738 5740 5741 5743 5745 5746 5748 5750 5753 5756 5759 5762 5763 5763 5765 5771 5774 5776 5779 5781 5784 5786 5790 5793 5796 5799 5802 5804 5808 5811 5812 5813 5814 5816 5817 5818 5818 5820 5822 5825 5827 5827
5719 5720 5722 5723 5724 5725 5726 5728 5729 5731 5733 5736 5738 5740 5741 5743 5746 5748 5751 5754 5757 5759 5763 5767 5770 5773 5777 5779 5781 5786 5791 5794 5794 5796 5797 5800 5801 5803 5803 5805 5809 5812 5812
5703 5702 5703 5704 5705 5706 5707 5707 5708 5709 5711 5713 5715 5717 5718 5719 5722 5725 5726 5729 5731 5733 5737 5741 5745 5749 5752 5756 5758 5760 5766 5771 5774 5776 5779 5781 5783 5785 5786 5789 5790 5794 5796
5685 5685 5685 5685 5685 5686 5686 5686 5687 5687 5688 5689 5691 5694 5695 5696 5698 5700 5701 5703 5707 5709 5711 5713 5717 5722 5726 5730 5733 5737 5738 5744 5749 5753 5757 5760 5763 5766 5767 5770 5772 5775 5778
5670 5668 5666 5666 5665 5664 5663 5664 5665 5663 5662 5663 5665 5667 5668 5670 5673 5673 5673 5675 5679 5683 5684 5686 5689 5693 5697 5702 5707 5712 5715 5716 5722 5727 5731 5736 5741 5743 5746 5749 5753 5755 5757
5654 5652 5650 5648 5645 5641 5640 5639 5637 5636 5634 5633 5634 5636 5637 5639 5641 5643 5644 5646 5649 5651 5654 5656 5660 5663 5667 5673 5679 5684 5690 5689 5695 5699 5705 5710 5716 5720 5722 5726 5731 5734 5735
5637 5635 5632 5628 5623 5619 5617 5614 5613 5610 5606 5602 5602 5603 5603 5603 5603 5605 5607 5609 5613 5616 5618 5622 5628 5633 5637 5643 5649 5655 5658 5663 5668 5672 5678 5684 5689 5696 5699 5702 5706 5709 5714